EW3668 Weather Reports


time (UTC)temp
C
wind
direction
speed
KPH
gust
KPH
rain 1hr
cm
rain 24hr
cm
rain mn
cm
humidity
%
barometer
mb
20260906123017 23 80 0.0 3.2 0.00 0.23 0.00 100 1013.5
20260906121616 23 88 0.0 3.2 0.00 0.23 0.00 100 1013.5
20260906120037 23 96 0.0 0.0 0.00 0.23 0.00 100 1013.5
20260906114536 22 77 0.0 0.0 0.00 0.23 0.00 100 1013.3
20260906113028 22 102 0.0 0.0 0.00 0.23 0.00 100 1013.1
20260906111530 22 101 0.0 1.6 0.00 0.23 0.00 100 1013.0
20260906110024 22 103 0.0 0.0 0.00 0.23 0.00 100 1012.8
20260906104523 22 103 0.0 0.0 0.00 0.23 0.00 100 1012.6
20260906103019 22 103 0.0 0.0 0.00 0.23 0.00 100 1012.5
20260906101518 22 124 0.0 0.0 0.00 0.23 0.00 100 1012.5
20260906100026 22 94 0.0 1.6 0.00 0.23 0.00 99 1012.3
20260906094514 22 109 0.0 1.6 0.00 0.23 0.00 99 1012.0
20260906093048 22 72 0.0 0.0 0.00 0.23 0.00 99 1011.7
20260906091544 22 71 0.0 0.0 0.00 0.23 0.00 99 1011.7
20260906090050 22 110 0.0 0.0 0.00 0.23 0.00 100 1011.6
20260906084542 22 315 0.0 0.0 0.00 0.23 0.00 100 1011.4
20260906083046 22 205 0.0 0.0 0.00 0.23 0.00 100 1011.4
20260906081539 22 205 0.0 0.0 0.00 0.23 0.00 100 1011.4
20260906080042 21 205 0.0 0.0 0.00 0.23 0.00 99 1011.2
20260906074535 21 205 0.0 0.0 0.00 0.23 0.00 100 1011.0
20260906073034 21 205 0.0 0.0 0.00 0.23 0.00 99 1010.8
20260906071533 22 205 0.0 0.0 0.00 0.23 0.00 99 1010.9
20260906070002 22 205 0.0 0.0 0.00 0.23 0.00 99 1011.0
20260906064504 22 205 0.0 0.0 0.00 0.23 0.00 99 1011.1
20260906063059 22 205 0.0 0.0 0.00 0.23 0.00 99 1011.2
20260906061559 22 205 0.0 0.0 0.00 0.23 0.00 99 1011.2
20260906060132 22 205 0.0 0.0 0.00 0.23 0.00 99 1011.3
20260906054606 22 205 0.0 0.0 0.00 0.23 0.00 99 1011.6
20260906053048 22 205 0.0 0.0 0.00 0.23 0.00 99 1011.8
20260906051547 22 205 0.0 0.0 0.00 0.23 0.00 100 1011.9
20260906050045 22 205 0.0 0.0 0.00 0.23 0.00 100 1011.9
20260906044544 23 205 0.0 0.0 0.00 0.23 0.00 100 1012.1
20260906043042 23 205 0.0 0.0 0.00 0.23 0.00 100 1012.2
20260906041538 23 205 0.0 0.0 0.00 0.23 0.23 100 1012.3
20260906040038 23 198 0.0 0.0 0.00 0.23 0.23 99 1012.4
20260906034552 23 113 0.0 0.0 0.00 0.23 0.23 100 1012.3
20260906033039 23 112 0.0 0.0 0.00 0.23 0.23 100 1012.2
20260906031535 23 113 0.0 0.0 0.00 0.23 0.23 100 1012.2
20260906030034 23 113 0.0 0.0 0.00 0.23 0.23 100 1012.1
20260906024536 23 113 0.0 0.0 0.00 0.23 0.23 100 1012.0
20260906023031 23 293 0.0 0.0 0.00 0.23 0.23 99 1012.1
20260906021538 23 293 0.0 0.0 0.00 0.23 0.23 99 1012.0
20260906020028 23 293 0.0 0.0 0.00 0.23 0.23 100 1011.8
20260906014528 23 293 0.0 0.0 0.00 0.23 0.23 100 1011.9
20260906013025 23 293 0.0 0.0 0.00 0.23 0.23 100 1011.8
20260906011525 23 293 0.0 0.0 0.00 0.23 0.23 100 1011.7
20260906010147 23 293 0.0 0.0 0.00 0.23 0.23 100 1011.5
20260906004524 23 293 0.0 0.0 0.00 0.23 0.23 100 1011.5
20260906003053 23 293 0.0 0.0 0.00 0.23 0.23 100 1011.5
20260906001602 24 293 0.0 0.0 0.00 0.23 0.23 100 1011.3
20260906000023 24 293 0.0 0.0 0.00 0.23 0.23 100 1011.0
20260905234522 24 293 0.0 0.0 0.00 0.23 0.23 100 1010.9
20260905233023 24 293 0.0 0.0 0.00 0.23 0.23 100 1010.7
20260905231523 24 293 0.0 0.0 0.00 0.23 0.23 100 1010.4
20260905230022 25 293 0.0 0.0 0.00 0.23 0.23 100 1010.0
20260905224522 25 293 0.0 0.0 0.00 0.23 0.23 100 1009.8
20260905223032 25 293 0.0 0.0 0.00 0.23 0.23 100 1009.9
20260905221521 24 293 0.0 0.0 0.00 0.23 0.23 100 1010.5
20260905220015 24 293 0.0 3.2 0.00 0.23 0.23 100 1010.6
20260905214515 24 288 0.0 1.6 0.00 0.23 0.23 100 1010.3
20260905213015 24 290 0.0 1.6 0.00 0.23 0.23 100 1010.1
20260905211512 24 292 0.0 1.6 0.00 0.23 0.23 100 1010.0
20260905210011 24 293 0.0 1.6 0.23 0.23 0.23 100 1010.1
20260905204510 24 144 0.0 3.2 0.23 0.23 0.23 100 1009.9
20260905203012 24 61 0.0 0.0 0.23 0.23 0.23 100 1009.9
20260905201517 25 61 0.0 1.6 0.23 0.23 0.23 99 1010.0
20260905200008 27 72 0.0 3.2 0.00 0.00 0.00 84 1010.7
20260905194507 28 70 0.0 3.2 0.00 0.00 0.00 83 1011.0
20260905193015 31 68 1.6 12.9 0.00 0.00 0.00 74 1010.9
20260905191504 35 112 0.0 0.0 0.00 0.00 0.00 65 1009.6
20260905190003 36 287 0.0 3.2 0.00 0.00 0.00 60 1009.5
20260905184503 37 340 1.6 6.4 0.00 0.00 0.00 57 1009.5
20260905183002 37 37 0.0 3.2 0.00 0.00 0.00 58 1009.6
20260905181535 37 212 0.0 4.8 0.00 0.00 0.00 58 1010.0
20260905180028 37 139 0.0 4.8 0.00 0.00 0.00 60 1010.3
20260905174522 37 242 0.0 4.8 0.00 0.00 0.00 61 1010.8
20260905173020 36 356 0.0 6.4 0.00 0.00 0.00 62 1011.2
20260905171516 37 95 0.0 4.8 0.00 0.00 0.00 61 1011.3
20260905170012 36 51 0.0 4.8 0.00 0.00 0.00 61 1011.6
20260905164506 36 262 0.0 3.2 0.00 0.00 0.00 64 1011.8
20260905163001 36 123 0.0 3.2 0.00 0.00 0.00 65 1011.9
20260905161559 35 80 0.0 4.8 0.00 0.00 0.00 66 1012.1
20260905160056 35 106 0.0 4.8 0.00 0.00 0.00 66 1012.4
20260905154520 34 124 0.0 3.2 0.00 0.00 0.00 71 1012.6
20260905153025 33 214 0.0 4.8 0.00 0.00 0.00 73 1012.8
20260905151510 33 110 0.0 6.4 0.00 0.00 0.00 73 1012.9
20260905150012 33 342 0.0 4.8 0.00 0.00 0.00 74 1012.9
20260905144508 32 236 0.0 4.8 0.00 0.00 0.00 80 1012.9
20260905143002 31 37 0.0 1.6 0.00 0.00 0.00 82 1012.9
20260905141556 31 264 1.6 6.4 0.00 0.00 0.00 82 1012.8
20260905140055 30 274 0.0 1.6 0.00 0.00 0.00 84 1012.7
20260905134551 30 297 0.0 3.2 0.00 0.00 0.00 86 1012.8
20260905133047 29 281 0.0 1.6 0.00 0.00 0.00 89 1012.8
20260905131551 28 270 0.0 4.8 0.00 0.00 0.00 93 1012.8
20260905130038 28 264 0.0 3.2 0.00 0.00 0.00 93 1012.9
20260905124535 27 208 0.0 1.6 0.00 0.00 0.00 95 1013.0